コワル第1彗星

99P/Kowal 1 (2022)

English version
Home page
Updated on June 26, 2022

---------------------------------------------------------------------

・ プロフィール

・ 写真集

・ 軌道要素

Epoch 2022 Jan. 21.0 TT = JDT 2459600.5
T 2022 Apr. 12.73420 TT                                 Rudenko
q   4.7060972            (2000.0)            P               Q
n   0.06531088     Peri.  174.94244     -0.92008144     +0.39010229
a   6.1067813      Node    28.10215     -0.36200383     -0.81197555
e   0.2293654      Incl.    4.33946     -0.14967753     -0.43418419
P  15.1
From 1123 observations 1977 Apr. 25-2022 Jan. 29, mean residual 0".7.

・ 星図

・ 光度変化

        m1 = 0.7 + 5 logΔ + 20.0 log r

---------------------------------------------------------------------

軌道要素はM.P.E.C. 2022-C56に掲載されたものです。
星図はステラナビゲータ Ver.10 (アストロアーツ) で作成したものです。
光度グラフはComet for Windowsで作成したものです。

---------------------------------------------------------------------

Copyright(C) Seiichi Yoshida (comet@aerith.net). All rights reserved.